Time,TemperatureF,DewpointF,PressureIn,WindDirection,WindDirectionDegrees,WindSpeedMPH,WindSpeedGustMPH,Humidity,HourlyPrecipIn,Conditions,Clouds,dailyrainin,SolarRadiationWatts/m^2,SoftwareType,DateUTC
2013-05-24 00:01:00,48.1,32.0,29.98,North,4,6.0,13.0,55,0.00,,,0.07,0,weatherlink.com 1.10,2013-05-24 06:01:00,
2013-05-24 00:16:00,47.7,32.0,30.00,North,353,4.0,11.0,56,0.00,,,0.00,0,weatherlink.com 1.10,2013-05-24 06:16:00,
2013-05-24 00:31:00,47.4,33.0,30.02,NNE,28,6.0,7.0,57,0.00,,,0.00,0,weatherlink.com 1.10,2013-05-24 06:31:00,
2013-05-24 00:46:00,47.4,33.0,30.02,NE,38,7.0,8.0,57,0.00,,,0.00,0,weatherlink.com 1.10,2013-05-24 06:46:00,
2013-05-24 01:01:00,47.4,33.0,30.02,NE,38,7.0,9.0,57,0.00,,,0.00,0,weatherlink.com 1.10,2013-05-24 07:01:00,
2013-05-24 01:16:00,47.7,32.0,30.02,NNE,33,7.0,10.0,56,0.00,,,0.00,0,weatherlink.com 1.10,2013-05-24 07:16:00,
2013-05-24 01:31:00,48.0,32.0,30.02,NNE,26,8.0,10.0,54,0.00,,,0.00,0,weatherlink.com 1.10,2013-05-24 07:31:00,
2013-05-24 01:46:00,47.9,32.0,30.01,North,4,6.0,9.0,54,0.00,,,0.00,0,weatherlink.com 1.10,2013-05-24 07:46:00,
2013-05-24 02:01:00,46.1,34.0,30.02,NW,306,1.0,5.0,63,0.00,,,0.00,0,weatherlink.com 1.10,2013-05-24 08:01:00,
2013-05-24 02:16:00,45.3,34.0,30.02,NW,306,0.0,0.0,65,0.00,,,0.00,0,weatherlink.com 1.10,2013-05-24 08:16:00,
2013-05-24 02:31:00,45.1,34.0,30.02,NW,310,0.0,3.0,65,0.00,,,0.00,0,weatherlink.com 1.10,2013-05-24 08:31:00,
2013-05-24 02:46:00,45.1,34.0,30.03,NE,56,2.0,5.0,66,0.00,,,0.00,0,weatherlink.com 1.10,2013-05-24 08:46:00,
2013-05-24 03:01:00,44.8,34.0,30.03,ESE,115,3.0,5.0,66,0.00,,,0.00,0,weatherlink.com 1.10,2013-05-24 09:01:00,
2013-05-24 03:16:00,45.1,34.0,30.03,East,99,2.0,5.0,66,0.00,,,0.00,0,weatherlink.com 1.10,2013-05-24 09:16:00,
2013-05-24 03:31:00,44.5,34.0,30.03,East,86,6.0,6.0,67,0.00,,,0.00,0,weatherlink.com 1.10,2013-05-24 09:31:00,
2013-05-24 03:46:00,44.4,34.0,30.03,East,80,4.0,6.0,67,0.00,,,0.00,0,weatherlink.com 1.10,2013-05-24 09:46:00,
2013-05-24 04:01:00,44.5,34.0,30.03,ENE,77,6.0,7.0,66,0.00,,,0.00,0,weatherlink.com 1.10,2013-05-24 10:01:00,
2013-05-24 04:16:00,44.7,34.0,30.03,East,87,5.0,8.0,66,0.00,,,0.00,0,weatherlink.com 1.10,2013-05-24 10:16:00,
2013-05-24 04:31:00,45.1,33.0,30.03,East,88,2.0,6.0,64,0.00,,,0.00,0,weatherlink.com 1.10,2013-05-24 10:31:00,
2013-05-24 04:46:00,43.0,34.0,30.03,East,88,0.0,2.0,71,0.00,,,0.00,0,weatherlink.com 1.10,2013-05-24 10:46:00,
2013-05-24 05:02:00,42.2,34.0,30.03,East,88,0.0,0.0,74,0.00,,,0.00,0,weatherlink.com 1.10,2013-05-24 11:02:00,
2013-05-24 05:17:00,41.8,34.0,30.03,East,88,0.0,0.0,75,0.00,,,0.00,0,weatherlink.com 1.10,2013-05-24 11:17:00,
2013-05-24 05:32:00,41.5,34.0,30.03,East,88,0.0,2.0,75,0.00,,,0.00,0,weatherlink.com 1.10,2013-05-24 11:32:00,
2013-05-24 05:47:00,40.6,34.0,30.03,ESE,117,0.0,0.0,78,0.00,,,0.00,0,weatherlink.com 1.10,2013-05-24 11:47:00,
2013-05-24 06:02:00,40.3,34.0,30.04,ESE,117,0.0,0.0,77,0.00,,,0.00,7,weatherlink.com 1.10,2013-05-24 12:02:00,
2013-05-24 06:17:00,40.0,34.0,30.04,ESE,117,0.0,0.0,79,0.00,,,0.00,12,weatherlink.com 1.10,2013-05-24 12:17:00,
2013-05-24 06:32:00,39.9,34.0,30.04,ESE,117,0.0,1.0,79,0.00,,,0.00,18,weatherlink.com 1.10,2013-05-24 12:32:00,
2013-05-24 06:47:00,39.4,34.0,30.05,ESE,117,0.0,0.0,80,0.00,,,0.00,21,weatherlink.com 1.10,2013-05-24 12:47:00,
2013-05-24 07:02:00,38.8,34.0,30.06,SSE,159,0.0,0.0,84,0.00,,,0.00,86,weatherlink.com 1.10,2013-05-24 13:02:00,
2013-05-24 07:17:00,39.7,35.0,30.06,West,281,0.0,1.0,83,0.00,,,0.00,118,weatherlink.com 1.10,2013-05-24 13:17:00,
2013-05-24 07:32:00,41.6,36.0,30.05,ENE,75,0.0,0.0,81,0.00,,,0.00,169,weatherlink.com 1.10,2013-05-24 13:32:00,
2013-05-24 07:47:00,42.2,35.0,30.05,ENE,75,0.0,0.0,77,0.00,,,0.00,218,weatherlink.com 1.10,2013-05-24 13:47:00,
2013-05-24 08:02:00,44.4,36.0,30.05,SE,144,3.0,12.0,72,0.00,,,0.00,264,weatherlink.com 1.10,2013-05-24 14:02:00,
2013-05-24 08:17:00,46.4,36.0,30.05,SSE,156,7.0,10.0,67,0.00,,,0.00,309,weatherlink.com 1.10,2013-05-24 14:17:00,
2013-05-24 08:32:00,47.4,36.0,30.04,SSE,156,5.0,9.0,64,0.00,,,0.00,369,weatherlink.com 1.10,2013-05-24 14:32:00,
2013-05-24 08:47:00,48.2,35.0,30.04,South,173,2.0,10.0,61,0.00,,,0.00,457,weatherlink.com 1.10,2013-05-24 14:47:00,
2013-05-24 09:02:00,48.4,36.0,30.04,SW,223,5.0,7.0,62,0.00,,,0.00,424,weatherlink.com 1.10,2013-05-24 15:02:00,
2013-05-24 09:17:00,49.2,36.0,30.03,SW,233,2.0,6.0,61,0.00,,,0.00,554,weatherlink.com 1.10,2013-05-24 15:17:00,
2013-05-24 09:32:00,50.5,36.0,30.03,SSE,154,1.0,7.0,57,0.00,,,0.00,545,weatherlink.com 1.10,2013-05-24 15:32:00,
2013-05-24 09:48:00,52.4,36.0,30.02,WSW,242,3.0,6.0,54,0.00,,,0.00,649,weatherlink.com 1.10,2013-05-24 15:48:00,
2013-05-24 10:03:00,52.3,36.0,30.02,South,178,3.0,8.0,54,0.00,,,0.00,677,weatherlink.com 1.10,2013-05-24 16:03:00,
2013-05-24 10:18:00,53.4,35.0,30.01,SSW,200,2.0,7.0,50,0.00,,,0.00,617,weatherlink.com 1.10,2013-05-24 16:18:00,
2013-05-24 10:33:00,54.3,35.0,30.00,SSW,193,7.0,7.0,48,0.00,,,0.00,687,weatherlink.com 1.10,2013-05-24 16:33:00,
2013-05-24 10:48:00,55.5,36.0,29.99,South,179,4.0,8.0,48,0.00,,,0.00,789,weatherlink.com 1.10,2013-05-24 16:48:00,
2013-05-24 11:03:00,56.6,35.0,29.98,East,98,6.0,14.0,44,0.00,,,0.00,664,weatherlink.com 1.10,2013-05-24 17:03:00,
2013-05-24 11:18:00,55.6,31.0,29.99,North,358,7.0,13.0,39,0.00,,,0.00,120,weatherlink.com 1.10,2013-05-24 17:18:00,
2013-05-24 11:33:00,52.4,32.0,30.00,NW,322,7.0,20.0,46,0.00,,,0.00,371,weatherlink.com 1.10,2013-05-24 17:33:00,
2013-05-24 11:48:00,54.6,34.0,29.98,NNW,330,8.0,13.0,46,0.00,,,0.00,847,weatherlink.com 1.10,2013-05-24 17:48:00,
2013-05-24 12:03:00,54.3,36.0,29.98,North,357,10.0,16.0,50,0.00,,,0.00,1000,weatherlink.com 1.10,2013-05-24 18:03:00,
2013-05-24 12:18:00,56.0,35.0,29.97,NW,318,5.0,13.0,46,0.00,,,0.00,970,weatherlink.com 1.10,2013-05-24 18:18:00,
2013-05-24 12:33:00,58.5,33.0,29.96,WNW,288,6.0,15.0,38,0.00,,,0.00,292,weatherlink.com 1.10,2013-05-24 18:33:00,
2013-05-24 12:48:00,58.1,34.0,29.96,NW,320,10.0,14.0,40,0.00,,,0.00,977,weatherlink.com 1.10,2013-05-24 18:48:00,
2013-05-24 13:03:00,58.3,32.0,29.95,NNW,347,2.0,11.0,37,0.00,,,0.00,329,weatherlink.com 1.10,2013-05-24 19:03:00,
2013-05-24 13:18:00,57.6,32.0,29.95,West,279,5.0,12.0,38,0.00,,,0.00,329,weatherlink.com 1.10,2013-05-24 19:18:00,
2013-05-24 13:33:00,58.9,32.0,29.95,SW,215,5.0,12.0,37,0.00,,,0.00,355,weatherlink.com 1.10,2013-05-24 19:33:00,
2013-05-24 13:48:00,58.8,31.0,29.95,South,177,4.0,11.0,35,0.00,,,0.00,264,weatherlink.com 1.10,2013-05-24 19:48:00,
2013-05-24 14:03:00,58.6,32.0,29.95,SSE,168,9.0,15.0,37,0.00,,,0.00,513,weatherlink.com 1.10,2013-05-24 20:03:00,
2013-05-24 14:18:00,59.7,32.0,29.95,South,183,9.0,17.0,35,0.00,,,0.00,923,weatherlink.com 1.10,2013-05-24 20:18:00,
2013-05-24 14:33:00,59.9,33.0,29.94,South,191,14.0,18.0,36,0.00,,,0.00,911,weatherlink.com 1.10,2013-05-24 20:33:00,
2013-05-24 14:48:00,60.0,32.0,29.94,SE,142,7.0,12.0,35,0.00,,,0.00,531,weatherlink.com 1.10,2013-05-24 20:48:00,
2013-05-24 15:03:00,59.5,31.0,29.95,South,181,9.0,13.0,34,0.00,,,0.00,258,weatherlink.com 1.10,2013-05-24 21:03:00,
2013-05-24 15:18:00,59.7,32.0,29.94,SE,140,10.0,14.0,35,0.00,,,0.00,244,weatherlink.com 1.10,2013-05-24 21:18:00,
2013-05-24 15:33:00,59.3,31.0,29.95,SSW,207,5.0,12.0,35,0.00,,,0.00,225,weatherlink.com 1.10,2013-05-24 21:33:00,
2013-05-24 15:48:00,60.3,32.0,29.95,WSW,258,16.0,21.0,35,0.00,,,0.00,601,weatherlink.com 1.10,2013-05-24 21:48:00,
2013-05-24 16:03:00,58.9,32.0,29.96,SW,216,8.0,20.0,37,0.00,,,0.00,345,weatherlink.com 1.10,2013-05-24 22:03:00,
2013-05-24 16:18:00,59.3,33.0,29.97,South,187,11.0,14.0,37,0.00,,,0.00,478,weatherlink.com 1.10,2013-05-24 22:18:00,
2013-05-24 16:33:00,58.5,31.0,29.98,WSW,246,0.0,15.0,36,0.00,,,0.00,132,weatherlink.com 1.10,2013-05-24 22:33:00,
2013-05-24 16:48:00,53.7,37.0,29.99,NNW,340,7.0,22.0,53,0.00,,,0.00,114,weatherlink.com 1.10,2013-05-24 22:48:00,
2013-05-24 17:03:00,52.0,37.0,30.00,NE,48,14.0,26.0,57,0.00,,,0.00,190,weatherlink.com 1.10,2013-05-24 23:03:00,
2013-05-24 17:18:00,50.9,36.0,30.01,North,349,13.0,21.0,58,0.00,,,0.00,128,weatherlink.com 1.10,2013-05-24 23:18:00,
2013-05-24 17:33:00,50.6,36.0,30.01,NNE,30,16.0,20.0,57,0.00,,,0.00,181,weatherlink.com 1.10,2013-05-24 23:33:00,
2013-05-24 17:48:00,50.6,35.0,30.02,NNE,29,11.0,20.0,55,0.00,,,0.00,69,weatherlink.com 1.10,2013-05-24 23:48:00,
2013-05-24 18:03:00,51.0,35.0,30.03,NE,38,11.0,18.0,54,0.00,,,0.00,84,weatherlink.com 1.10,2013-05-25 00:03:00,
2013-05-24 18:18:00,52.3,35.0,30.03,NNE,31,3.0,10.0,52,0.00,,,0.00,134,weatherlink.com 1.10,2013-05-25 00:18:00,
2013-05-24 18:33:00,53.6,36.0,30.04,NNE,27,9.0,12.0,51,0.00,,,0.00,241,weatherlink.com 1.10,2013-05-25 00:33:00,
2013-05-24 18:48:00,53.5,35.0,30.03,North,359,13.0,17.0,49,0.00,,,0.00,207,weatherlink.com 1.10,2013-05-25 00:48:00,
2013-05-24 19:03:00,54.2,35.0,30.03,North,3,7.0,10.0,48,0.00,,,0.00,323,weatherlink.com 1.10,2013-05-25 01:03:00,
2013-05-24 19:18:00,54.6,34.0,30.04,North,354,3.0,10.0,46,0.00,,,0.00,202,weatherlink.com 1.10,2013-05-25 01:18:00,
2013-05-24 19:33:00,54.7,34.0,30.04,North,356,7.0,13.0,45,0.00,,,0.00,148,weatherlink.com 1.10,2013-05-25 01:33:00,
2013-05-24 19:48:00,54.0,32.0,30.06,WNW,295,5.0,9.0,44,0.00,,,0.00,28,weatherlink.com 1.10,2013-05-25 01:48:00,
2013-05-24 20:03:00,53.9,33.0,30.06,West,280,8.0,13.0,45,0.00,,,0.00,158,weatherlink.com 1.10,2013-05-25 02:03:00,
2013-05-24 20:18:00,52.3,33.0,30.07,WNW,283,5.0,10.0,49,0.00,,,0.00,44,weatherlink.com 1.10,2013-05-25 02:18:00,
2013-05-24 20:33:00,51.4,33.0,30.07,North,354,8.0,11.0,50,0.00,,,0.00,39,weatherlink.com 1.10,2013-05-25 02:33:00,
2013-05-24 20:48:00,50.4,33.0,30.07,NNW,347,6.0,13.0,51,0.00,,,0.00,19,weatherlink.com 1.10,2013-05-25 02:48:00,
2013-05-24 21:03:00,49.8,34.0,30.09,NNW,340,8.0,13.0,54,0.00,,,0.00,0,weatherlink.com 1.10,2013-05-25 03:03:00,
2013-05-24 21:18:00,49.7,33.0,30.09,NNW,329,6.0,11.0,52,0.00,,,0.00,0,weatherlink.com 1.10,2013-05-25 03:18:00,
2013-05-24 21:33:00,49.5,32.0,30.09,WNW,291,3.0,9.0,51,0.00,,,0.00,0,weatherlink.com 1.10,2013-05-25 03:33:00,
2013-05-24 21:49:00,49.6,31.0,30.10,NW,326,4.0,8.0,50,0.00,,,0.00,0,weatherlink.com 1.10,2013-05-25 03:49:00,
2013-05-24 22:04:00,49.5,32.0,30.10,NW,314,0.0,5.0,52,0.00,,,0.00,0,weatherlink.com 1.10,2013-05-25 04:04:00,
2013-05-24 22:19:00,49.0,32.0,30.11,NW,314,0.0,3.0,53,0.00,,,0.00,0,weatherlink.com 1.10,2013-05-25 04:19:00,
2013-05-24 22:34:00,48.7,33.0,30.11,NW,314,0.0,0.0,54,0.00,,,0.00,0,weatherlink.com 1.10,2013-05-25 04:34:00,
2013-05-24 22:49:00,48.3,33.0,30.12,NW,314,2.0,3.0,56,0.00,,,0.00,0,weatherlink.com 1.10,2013-05-25 04:49:00,
2013-05-24 23:04:00,47.1,33.0,30.11,NNE,33,4.0,7.0,59,0.00,,,0.00,0,weatherlink.com 1.10,2013-05-25 05:04:00,
2013-05-24 23:19:00,45.9,33.0,30.11,NE,43,6.0,7.0,61,0.00,,,0.00,0,weatherlink.com 1.10,2013-05-25 05:19:00,
2013-05-24 23:34:00,45.0,33.0,30.10,NE,38,7.0,8.0,63,0.00,,,0.00,0,weatherlink.com 1.10,2013-05-25 05:34:00,
2013-05-24 23:49:00,44.9,33.0,30.10,NE,38,4.0,9.0,63,0.00,,,0.00,0,weatherlink.com 1.10,2013-05-25 05:49:00,